Location: Berua Church
(35.0423°N, 88.5987°W)
Time: 08:35:45
(UTC+00:00)

YAOGAN 1 - Pass Details

Date: 08 December 2019
Orbit: 619 x 621 km, 98.0° (Epoch: 19 January)

Event Time Altitude Azimuth Distance (km) Brightness Sun altitude
Rises 23:25:28 0° 127° (SE) 2,886 5.7 -8.8°
Reaches altitude 10° 23:28:21 10° 106° (ESE) 1,985 4.7 -9.4°
Maximum altitude 23:31:00 16° 67° (ENE) 1,620 4.0 -9.9°
Drops below altitude 10° 23:33:40 10° 29° (NNE) 1,992 4.7 -10.4°
Sets 23:36:33 0° 9° (N) 2,903 5.7 -10.9°
